Вернуться в каталог

STARLINK-35004

АктивенСвязьVLEO
NORAD 65428·PAYLOAD·🇺🇸 United States

Запущен Aug 31, 2025 с Cape Canaveral Space Force Station

Loading…

Ближайшие Пролёты (ближайшие 24 часа)

TLE

СвежийSource: CelesTrak SupGP

Эпоха: Sep 14, 2026, 14:57 UTC

1 65428C 25192AA  26257.62340278 -.00049501  00000+0 -14620-2 0  2570
2 65428  53.1595  73.0608 0001162  92.1169 312.5099 15.34427140    18

Отслеживайте STARLINK-35004 в реальном времени с AllMySat

Download on the App Store